Left ArrowRight Arrow

35.59393, -105.2239

Hourly Observations for June 18, 2024

Temp ( °F °C ) Dew Point ( °F °C ) Humidity (%) Winds ( mph kmh ) Pressure ( in mb ) Visibility ( mi km ) Precip ( " mm )
12:53 am 00:53 Clear 59 15 28 -2.2 30 30 SSW 10 17 29.50 999 10 16 0.00 0.00
1:53 am 01:53 Clear 61 16.1 26 -3.3 26 26 SSW 8 13 29.49 999 10 16 0.00 0.00
2:53 am 02:53 Clear 63 17.2 24 -4.4 22 22 WSW 12 19 29.47 998 10 16 0.00 0.00
3:53 am 03:53 Clear 64 17.8 24 -4.4 22 22 NW 10 17 29.48 998 10 16 0.00 0.00
4:53 am 04:53 Clear 69 20.6 23 -5 17 17 W 7 11 29.48 998 10 16 0.00 0.00
5:53 am 05:53 Sunny 64 17.8 26 -3.3 23 23 W 9 15 29.53 1000 10 16 0.00 0.00
6:53 am 06:53 Sunny 67 19.4 28 -2.2 23 23 W 6 9 29.54 1000 10 16 0.00 0.00
7:53 am 07:53 Sunny 70 21.1 30 -1.1 23 23 SW 14 22 29.57 1001 10 16 0.00 0.00
8:53 am 08:53 Sunny 73 22.8 28 -2.2 19 19 W 9 15 29.60 1003 10 16 0.00 0.00
9:53 am 09:53 Sunny 76 24.4 27 -2.8 16 16 WSW 24 39 29.59 1002 10 16 0.00 0.00
10:53 am 10:53 Sunny 77 25 28 -2.2 16 16 SW 23 37 29.60 1002 10 16 0.00 0.00
11:53 am 11:53 Sunny 80 26.7 28 -2.2 15 15 WSW 23 37 29.61 1003 10 16 0.00 0.00
12:53 pm 12:53 Sunny 81 27.2 27 -2.8 14 14 SW 23 37 29.62 1003 10 16 0.00 0.00
1:53 pm 13:53 Sunny 83 28.3 28 -2.2 14 14 WSW 18 30 29.62 1003 10 16 0.00 0.00
2:53 pm 14:53 Sunny 83 28.3 28 -2.2 14 14 WSW 21 33 29.61 1003 10 16 0.00 0.00
3:53 pm 15:53 Sunny 84 28.9 28 -2.2 13 13 SW 16 26 29.60 1003 10 16 0.00 0.00
4:53 pm 16:53 Sunny 80 26.7 28 -2.2 15 15 WSW 17 28 29.60 1002 10 16 0.00 0.00
5:53 pm 17:53 Sunny 80 26.7 29 -1.7 15 15 SW 15 24 29.62 1003 10 16 0.00 0.00
6:53 pm 18:53 Sunny 81 27.2 27 -2.8 14 14 SSW 10 17 29.62 1003 10 16 0.00 0.00
7:53 pm 19:53 Sunny 74 23.3 33 0.6 22 22 W 7 11 29.64 1004 10 16 0.00 0.00
8:53 pm 20:53 Clear 74 23.3 26 -3.3 17 17 NW 6 9 29.64 1004 10 16 0.00 0.00
9:53 pm 21:53 Clear 65 18.3 30 -1.1 27 27 E 7 11 29.69 1005 10 16 0.00 0.00
10:53 pm 22:53 Clear 69 20.6 27 -2.8 20 20 E 5 7 29.69 1005 10 16 0.00 0.00
11:53 pm 23:53 Clear 61 16.1 30 -1.1 31 31 NNE 8 13 29.71 1006 10 16 0.00 0.00

Powered by Vaisala Xweather